TimeCDT,TemperatureF,Dew PointF,Humidity,Sea Level PressureIn,VisibilityMPH,Wind Direction,Wind SpeedMPH,Gust SpeedMPH,PrecipitationIn,Events,Conditions,WindDirDegrees,DateUTC
12:56 AM,57.0,43.0,59,29.87,10.0,South,11.5,-,N/A,,Clear,180,2012-09-19 05:56:00
1:56 AM,57.0,43.0,59,29.84,10.0,South,12.7,-,N/A,,Clear,180,2012-09-19 06:56:00
2:56 AM,55.0,44.1,67,29.83,10.0,SSW,4.6,-,N/A,,Clear,200,2012-09-19 07:56:00
3:56 AM,54.0,44.1,69,29.81,10.0,SSW,6.9,-,N/A,,Clear,210,2012-09-19 08:56:00
4:56 AM,52.0,44.1,74,29.81,10.0,SSW,3.5,-,N/A,,Clear,200,2012-09-19 09:56:00
5:56 AM,48.9,43.0,80,29.80,10.0,Calm,Calm,-,N/A,,Clear,0,2012-09-19 10:56:00
6:56 AM,45.0,39.9,82,29.81,10.0,West,3.5,-,N/A,,Clear,260,2012-09-19 11:56:00
8:56 AM,54.0,45.0,72,29.80,10.0,Calm,Calm,-,N/A,,Clear,0,2012-09-19 13:56:00
9:56 AM,66.0,46.0,48,29.78,10.0,NNE,3.5,-,N/A,,Clear,30,2012-09-19 14:56:00
10:56 AM,73.9,45.0,35,29.78,10.0,Calm,Calm,-,N/A,,Clear,0,2012-09-19 15:56:00
11:56 AM,86.0,37.0,18,29.78,10.0,NW,17.3,24.2,N/A,,Clear,310,2012-09-19 16:56:00
12:56 PM,82.0,37.0,20,29.84,10.0,NNW,17.3,28.8,N/A,,Clear,330,2012-09-19 17:56:00
1:56 PM,82.0,37.9,21,29.85,10.0,North,20.7,29.9,N/A,,Clear,350,2012-09-19 18:56:00
2:56 PM,81.0,37.0,21,29.86,10.0,NW,20.7,34.5,N/A,,Clear,320,2012-09-19 19:56:00
3:56 PM,81.0,34.0,18,29.86,10.0,NW,19.6,35.7,N/A,,Clear,320,2012-09-19 20:56:00
4:56 PM,78.1,30.9,18,29.88,10.0,NNW,23.0,34.5,N/A,,Clear,330,2012-09-19 21:56:00
5:56 PM,75.0,30.0,19,29.91,10.0,North,20.7,28.8,N/A,,Clear,350,2012-09-19 22:56:00
6:56 PM,71.1,30.9,23,29.94,10.0,NNW,12.7,-,N/A,,Clear,330,2012-09-19 23:56:00
7:56 PM,68.0,30.0,24,29.96,10.0,NNW,12.7,-,N/A,,Clear,340,2012-09-20 00:56:00
8:56 PM,63.0,30.0,29,29.98,10.0,NNW,10.4,-,N/A,,Clear,330,2012-09-20 01:56:00
9:56 PM,59.0,30.0,33,29.99,10.0,NW,3.5,-,N/A,,Clear,310,2012-09-20 02:56:00
10:56 PM,55.0,32.0,42,30.00,10.0,NW,6.9,-,N/A,,Clear,310,2012-09-20 03:56:00
11:56 PM,51.1,32.0,48,29.99,10.0,WSW,4.6,-,N/A,,Clear,250,2012-09-20 04:56:00